Time,TemperatureF,DewpointF,PressureIn,WindDirection,WindDirectionDegrees,WindSpeedMPH,WindSpeedGustMPH,Humidity,HourlyPrecipIn,Conditions,Clouds,dailyrainin,SoftwareType,DateUTC
2013-02-08 00:00:00,0.0,39.2,29.26,North,0,5.0,10.0,0,0.00,MI,SKC,-99.99,Misterhouse,2013-02-08 06:00:00,
2013-02-08 00:30:00,0.0,39.2,29.26,North,0,5.0,13.0,0,0.00,MI,SKC,-99.99,Misterhouse,2013-02-08 06:30:00,
2013-02-08 01:00:00,0.0,39.2,29.26,North,0,3.0,10.0,0,0.00,MI,SKC,-99.99,Misterhouse,2013-02-08 07:00:00,
2013-02-08 01:30:00,0.0,39.2,29.29,NE,45,5.0,10.0,0,0.00,MI,SKC,-99.99,Misterhouse,2013-02-08 07:30:00,
2013-02-08 02:00:00,0.0,39.2,29.29,ENE,67,6.0,12.0,0,0.00,MI,SKC,-99.99,Misterhouse,2013-02-08 08:00:00,
2013-02-08 02:30:00,0.0,39.2,29.29,North,0,6.0,10.0,0,0.00,MI,SKC,-99.99,Misterhouse,2013-02-08 08:30:00,
2013-02-08 03:00:00,0.0,39.2,29.32,North,0,7.0,12.0,0,0.00,MI,SKC,-99.99,Misterhouse,2013-02-08 09:00:00,
2013-02-08 03:30:00,0.0,39.2,29.32,North,0,6.0,9.0,0,0.00,MI,SKC,-99.99,Misterhouse,2013-02-08 09:30:00,
2013-02-08 04:00:00,0.0,39.2,29.35,NE,45,6.0,9.0,0,0.00,MI,SKC,-99.99,Misterhouse,2013-02-08 10:00:00,
2013-02-08 04:30:00,0.0,37.4,29.35,North,0,4.0,10.0,0,0.00,MI,SKC,-99.99,Misterhouse,2013-02-08 10:30:00,
2013-02-08 05:00:00,0.0,37.4,29.38,NNW,337,4.0,9.0,0,0.00,MI,SKC,-99.99,Misterhouse,2013-02-08 11:00:00,
2013-02-08 05:30:00,0.0,37.4,29.38,NW,315,3.0,11.0,0,0.00,MI,SKC,-99.99,Misterhouse,2013-02-08 11:30:00,
2013-02-08 06:00:00,0.0,37.4,29.38,NE,45,4.0,10.0,0,0.00,MI,SKC,-99.99,Misterhouse,2013-02-08 12:00:00,
2013-02-08 06:30:00,0.0,37.4,29.38,NE,45,2.0,8.0,0,0.00,MI,SKC,-99.99,Misterhouse,2013-02-08 12:30:00,
2013-02-08 07:00:00,0.0,37.4,29.41,North,0,3.0,8.0,0,0.00,MI,SKC,-99.99,Misterhouse,2013-02-08 13:00:00,
2013-02-08 07:30:00,0.0,35.6,29.41,NNE,22,2.0,6.0,0,0.00,MI,SKC,-99.99,Misterhouse,2013-02-08 13:30:00,
2013-02-08 08:00:00,0.0,35.6,29.44,NNE,22,3.0,5.0,0,0.00,MI,SKC,-99.99,Misterhouse,2013-02-08 14:00:00,
2013-02-08 08:30:00,0.0,35.6,29.44,North,0,2.0,6.0,0,0.00,MI,SKC,-99.99,Misterhouse,2013-02-08 14:30:00,
2013-02-08 09:00:00,0.0,33.8,29.44,NNE,22,2.0,6.0,0,0.00,MI,SKC,-99.99,Misterhouse,2013-02-08 15:00:00,
2013-02-08 09:30:00,0.0,33.8,29.47,NNW,337,4.0,5.0,0,0.00,MI,SKC,-99.99,Misterhouse,2013-02-08 15:30:00,
2013-02-08 10:00:00,0.0,33.8,29.47,NE,45,3.0,5.0,0,0.00,MI,SKC,-99.99,Misterhouse,2013-02-08 16:00:00,
2013-02-08 10:30:00,0.0,33.8,29.47,ENE,67,3.0,6.0,0,0.00,MI,SKC,-99.99,Misterhouse,2013-02-08 16:30:00,
2013-02-08 11:00:00,0.0,33.8,29.47,ENE,67,6.0,6.0,0,0.00,MI,SKC,-99.99,Misterhouse,2013-02-08 17:00:00,
2013-02-08 11:30:00,0.0,33.8,29.47,ENE,67,3.0,7.0,0,0.00,MI,SKC,-99.99,Misterhouse,2013-02-08 17:30:00,
2013-02-08 12:00:00,0.0,33.8,29.47,ENE,67,2.0,6.0,0,0.00,MI,SKC,-99.99,Misterhouse,2013-02-08 18:00:00,
2013-02-08 13:00:00,0.0,33.8,29.47,ENE,67,2.0,6.0,0,0.00,MI,SKC,-99.99,Misterhouse,2013-02-08 19:00:00,
2013-02-08 13:30:00,0.0,35.6,29.47,NNE,22,4.0,5.0,0,0.00,MI,SKC,-99.99,Misterhouse,2013-02-08 19:30:00,
2013-02-08 14:00:00,0.0,35.6,29.47,ENE,67,3.0,4.0,0,0.00,MI,SKC,-99.99,Misterhouse,2013-02-08 20:00:00,
2013-02-08 14:30:00,0.0,35.6,29.47,North,0,3.0,4.0,0,0.00,MI,SKC,-99.99,Misterhouse,2013-02-08 20:30:00,
2013-02-08 15:00:00,0.0,35.6,29.47,ENE,67,2.0,4.0,0,0.00,MI,SKC,-99.99,Misterhouse,2013-02-08 21:00:00,
2013-02-08 15:30:00,0.0,35.6,29.47,ENE,67,4.0,7.0,0,0.00,MI,SKC,-99.99,Misterhouse,2013-02-08 21:30:00,
2013-02-08 16:00:00,0.0,33.8,29.47,ENE,67,2.0,4.0,0,0.00,MI,SKC,-99.99,Misterhouse,2013-02-08 22:00:00,
2013-02-08 16:30:00,0.0,33.8,29.44,East,90,4.0,4.0,0,0.00,MI,SKC,-99.99,Misterhouse,2013-02-08 22:30:00,
2013-02-08 17:00:00,0.0,35.6,29.44,SW,225,2.0,5.0,0,0.00,MI,SKC,-99.99,Misterhouse,2013-02-08 23:00:00,
2013-02-08 17:30:00,0.0,33.8,29.44,ESE,112,3.0,4.0,0,0.00,MI,SKC,-99.99,Misterhouse,2013-02-08 23:30:00,
2013-02-08 18:00:00,0.0,33.8,29.44,ESE,112,3.0,4.0,0,0.00,MI,SKC,-99.99,Misterhouse,2013-02-09 00:00:00,
2013-02-08 18:30:00,0.0,33.8,29.44,SW,225,2.0,3.0,0,0.00,MI,SKC,-99.99,Misterhouse,2013-02-09 00:30:00,
2013-02-08 19:00:00,0.0,33.8,29.47,SW,225,3.0,6.0,0,0.00,MI,SKC,-99.99,Misterhouse,2013-02-09 01:00:00,
2013-02-08 19:30:00,0.0,33.8,29.44,SSW,202,2.0,7.0,0,0.00,MI,SKC,-99.99,Misterhouse,2013-02-09 01:30:00,
2013-02-08 20:00:00,0.0,33.8,29.44,SE,135,2.0,5.0,0,0.00,MI,SKC,-99.99,Misterhouse,2013-02-09 02:00:00,
2013-02-08 20:30:00,0.0,33.8,29.44,SSE,157,3.0,6.0,0,0.00,MI,SKC,-99.99,Misterhouse,2013-02-09 02:30:00,
2013-02-08 21:00:00,0.0,35.6,29.44,SSE,157,3.0,6.0,0,0.00,MI,SKC,-99.99,Misterhouse,2013-02-09 03:00:00,
2013-02-08 21:30:00,0.0,35.6,29.44,SSW,202,2.0,7.0,0,0.00,MI,SKC,-99.99,Misterhouse,2013-02-09 03:30:00,
2013-02-08 22:00:00,0.0,33.8,29.44,SE,135,3.0,7.0,0,0.00,MI,SKC,-99.99,Misterhouse,2013-02-09 04:00:00,
2013-02-08 22:30:00,0.0,35.6,29.44,SE,135,2.0,5.0,0,0.00,MI,SKC,-99.99,Misterhouse,2013-02-09 04:30:00,
2013-02-08 23:00:00,0.0,35.6,29.44,SSE,157,2.0,5.0,0,0.00,MI,SKC,-99.99,Misterhouse,2013-02-09 05:00:00,
2013-02-08 23:30:00,0.0,35.6,29.44,WSW,247,2.0,5.0,0,0.00,MI,SKC,-99.99,Misterhouse,2013-02-09 05:30:00,